Wind_Speed
75 72 71 75 81 84 75 75 64 67 72 69 72 74 65 69 68 62 68 67 65 64 63 63 64 63 60 63 62 58 61 63 64 63 65 64 67 69 72 68 69 63 64 75 82
75 74 74 72 73 83 83 75 69 72 76 74 72 76 75 74 74 68 68 68 68 70 69 65 62 66 69 66 61 59 60 68 67 66 65 69 68 70 72 69 64 67 76 80 85
77 78 75 74 72 74 79 77 74 66 69 68 77 80 77 80 76 77 77 75 71 71 65 63 67 68 67 62 63 67 67 71 73 71 69 65 65 71 70 66 70 74 79 78 86
77 80 79 79 77 75 74 75 76 72 69 70 66 69 76 68 69 72 75 76 74 77 74 71 67 73 67 66 73 74 68 71 73 71 68 65 67 68 64 73 77 79 82 89 81
67 73 78 81 81 78 76 74 74 74 72 71 68 67 67 64 65 72 72 72 74 76 75 74 72 72 70 74 77 76 76 76 77 77 69 73 61 64 67 70 74 81 81 81 83
59 59 72 79 83 82 78 77 75 73 73 73 69 69 66 57 72 73 71 73 73 74 70 74 77 79 75 77 81 83 78 78 76 68 62 68 61 61 74 77 79 76 80 81 87
51 58 62 68 78 84 84 82 80 77 75 73 73 71 65 63 74 69 69 72 78 71 71 74 74 78 82 81 77 74 72 66 63 62 60 60 62 73 79 76 78 79 83 83 59
50 53 63 62 68 78 83 84 84 82 80 78 74 73 67 74 74 71 72 71 72 71 70 71 68 67 66 69 67 67 66 57 58 62 62 60 57 66 71 76 77 79 80 66 55
49 53 58 63 64 69 75 81 84 85 84 83 80 77 68 75 73 77 72 72 73 73 71 71 68 66 67 60 54 60 57 59 53 59 62 57 59 66 76 78 74 77 56 56 56
54 54 57 58 65 70 71 74 77 81 84 80 81 76 73 74 75 72 71 73 73 72 72 70 66 57 52 53 65 62 61 63 66 66 67 63 68 70 68 69 76 56 54 50 52
62 63 63 62 61 66 68 71 76 75 77 73 78 77 75 70 66 69 74 71 69 67 62 60 52 49 56 63 63 63 67 66 64 59 68 69 68 68 64 70 52 48 48 50 44
68 68 68 72 71 69 67 67 77 79 70 69 67 63 63 65 64 62 63 59 62 59 63 59 54 67 69 65 65 63 67 68 63 59 66 63 60 57 55 46 43 42 43 40 37
80 77 76 76 76 79 79 77 76 75 77 74 73 62 70 67 63 63 62 66 60 59 56 56 67 67 64 66 69 65 61 60 57 60 61 57 56 51 41 37 38 37 40 36 34
88 89 86 84 82 84 86 87 83 75 74 69 76 70 71 72 66 72 68 66 66 64 68 65 70 67 67 66 64 64 60 55 56 58 58 61 43 37 32 33 32 34 33 36 31
95 94 95 94 92 91 89 90 90 88 82 64 75 79 81 76 72 72 79 77 75 74 74 67 71 72 66 61 63 59 64 58 57 57 61 53 32 28 23 24 27 26 28 32 32
105 105 102 103 103 101 97 96 97 97 80 66 71 71 76 78 77 84 79 74 76 76 72 70 70 68 64 64 65 63 62 60 59 54 42 33 26 21 21 26 26 27 29 29 30
101 103 104 108 110 110 105 106 105 100 73 74 80 71 69 77 80 82 80 81 79 75 67 70 67 68 69 68 64 66 63 59 48 36 31 29 21 20 26 29 32 32 29 26 28
83 89 96 101 109 113 115 116 106 83 81 80 84 81 75 75 77 84 85 85 77 72 74 71 70 67 66 63 61 56 51 38 34 31 27 22 17 19 27 30 32 34 32 29 27
67 72 81 91 97 102 111 112 100 92 90 88 95 97 83 81 79 82 76 69 70 73 72 69 63 64 58 50 47 37 29 35 30 30 22 19 17 19 25 29 33 34 33 28 26
56 61 68 74 82 90 92 92 93 99 101 105 103 104 94 88 87 84 79 59 61 58 60 57 55 52 49 47 38 31 33 30 30 27 18 19 20 22 28 28 30 32 32 29 26
47 52 58 64 70 74 75 76 92 106 114 114 111 110 101 92 89 87 79 68 64 61 60 56 55 48 48 32 31 32 31 31 31 22 23 18 21 24 26 26 31 33 34 31 28
39 43 49 53 58 62 71 78 87 103 115 121 119 111 104 100 95 91 81 75 66 66 64 57 53 54 40 36 40 41 37 34 24 23 21 20 24 24 28 27 30 30 33 31 27
36 37 39 44 49 54 63 68 77 95 114 121 121 112 110 107 95 89 80 75 73 74 62 61 59 54 50 45 45 37 36 28 26 26 22 26 25 22 27 26 27 28 31 33 26
34 34 35 37 41 48 56 62 72 90 106 120 117 118 112 106 95 91 81 78 77 75 67 70 64 51 49 46 44 42 33 33 34 31 27 27 30 24 25 27 28 28 29 31 29
32 33 32 31 35 42 48 58 65 80 102 116 117 120 116 107 98 97 97 94 86 80 76 76 69 50 49 52 46 46 45 38 34 29 24 33 29 28 26 27 27 29 27 29 30
32 31 30 31 30 36 46 56 63 75 94 105 114 117 117 108 105 106 101 97 88 84 84 84 70 59 53 52 48 46 44 42 38 30 32 35 29 31 27 29 22 28 27 28 30
30 30 27 30 31 36 43 50 61 72 85 95 104 115 113 111 111 110 108 100 95 92 94 83 70 66 55 54 51 47 45 41 39 38 34 34 34 29 29 32 30 27 25 27 29
Wind_Direction
237 238 238 240 242 246 249 245 242 239 241 242 243 245 243 242 248 252 252 259 259 261 265 265 263 265 270 276 282 283 281 278 284 285 288 285 288 295 300 295 295 286 298 305 307
240 239 239 238 240 243 248 250 246 240 244 243 245 245 245 244 248 250 251 255 255 262 263 264 268 272 270 274 281 280 277 283 285 283 281 282 291 301 297 292 279 283 302 305 304
242 241 241 241 240 241 242 245 247 245 248 248 242 242 245 246 251 251 256 257 260 261 259 263 266 268 267 271 274 276 282 282 284 280 283 286 296 292 288 281 290 302 299 297 301
241 242 243 242 241 240 242 244 245 245 245 245 246 246 244 247 249 251 252 254 255 259 260 261 260 262 266 272 275 280 282 283 282 281 285 289 292 283 280 291 294 295 302 300 306
245 244 243 244 243 241 242 244 246 247 248 246 246 248 248 248 251 250 251 253 254 256 258 259 259 262 265 269 275 281 281 282 279 282 286 289 273 273 281 290 295 297 298 305 309
247 243 243 243 244 244 245 245 246 246 248 248 249 250 250 252 250 252 250 253 252 257 260 260 261 266 270 269 274 279 277 277 279 286 285 278 278 293 291 292 294 297 306 309 308
249 235 243 242 243 243 245 245 245 246 249 251 251 252 253 252 252 254 257 253 255 258 259 262 269 271 268 270 272 275 277 277 276 275 271 274 294 289 286 291 297 304 304 307 307
254 253 240 244 246 244 245 247 247 247 249 249 250 251 251 250 252 254 254 257 258 263 263 264 268 270 268 268 273 275 273 270 262 263 272 282 295 297 297 299 304 305 307 305 299
260 259 247 244 248 244 244 246 247 248 249 250 249 249 250 252 251 251 257 257 259 261 264 267 270 268 268 269 267 259 262 258 272 278 282 297 298 300 301 302 306 306 303 301 297
260 256 257 255 252 248 246 244 248 247 247 249 250 250 247 248 252 253 254 256 258 259 262 263 264 266 266 258 253 257 256 266 272 281 289 302 301 298 303 305 305 304 304 298 295
261 260 257 253 252 252 249 245 240 242 246 247 248 249 249 248 252 252 253 254 257 258 257 255 259 260 248 251 254 258 262 266 274 291 292 298 297 301 304 301 305 302 300 299 298
261 257 256 255 254 251 249 249 247 238 237 242 243 244 243 241 244 247 250 248 251 251 244 249 247 253 255 259 266 268 270 278 284 291 291 296 300 303 299 304 298 298 304 304 301
260 255 253 251 250 251 251 247 246 242 238 238 235 232 233 241 242 243 245 249 250 249 249 246 249 250 251 257 262 268 276 283 285 287 292 295 299 297 299 297 294 298 302 301 304
257 255 253 249 249 247 246 249 249 245 239 232 239 235 238 237 231 239 237 237 239 238 239 242 246 250 254 261 268 275 283 284 287 289 288 295 293 290 294 294 305 303 304 303 309
253 249 250 249 246 244 246 243 244 245 240 232 237 240 240 243 242 246 241 238 239 242 240 252 251 254 261 266 268 273 275 281 281 283 288 288 280 289 303 317 317 313 316 310 316
257 252 247 243 244 244 241 242 242 240 241 236 238 240 241 243 246 247 246 242 244 242 245 250 253 256 261 266 269 272 275 275 282 284 278 272 278 296 326 326 329 326 334 324 319
260 257 251 245 239 239 239 240 239 238 235 235 240 233 236 239 240 244 245 243 249 250 250 253 254 254 258 262 266 262 270 277 278 265 260 269 278 314 320 330 337 337 339 329 323
259 256 253 249 243 239 235 236 238 235 235 234 237 234 228 235 237 241 240 244 244 249 252 254 259 265 264 260 260 265 268 267 251 251 258 265 294 313 319 332 333 338 345 337 330
258 254 250 247 246 242 237 236 234 235 232 232 231 233 227 227 232 238 237 238 240 243 249 251 253 253 254 252 255 252 242 238 243 249 255 266 289 308 312 327 336 339 340 337 329
258 253 250 247 246 244 239 236 230 227 230 231 232 230 225 221 228 231 238 232 238 240 240 241 242 247 244 243 243 228 227 237 241 244 250 273 298 311 316 329 333 339 346 343 338
261 256 250 246 244 243 241 232 225 221 224 230 228 228 226 223 223 228 230 228 228 231 236 235 234 239 238 237 228 226 232 231 236 242 251 275 288 308 316 327 338 343 349 342 339
264 257 252 247 243 239 235 230 221 219 222 226 225 227 225 223 223 229 226 227 225 229 232 238 235 234 234 224 221 221 220 230 235 244 255 274 282 299 307 329 335 339 347 345 337
270 261 253 250 243 237 235 229 222 218 219 222 225 225 225 223 220 223 227 233 226 230 231 237 234 230 228 221 222 220 220 220 235 248 257 271 279 294 304 316 331 337 344 346 340
277 268 258 247 243 235 233 228 221 217 217 219 220 223 224 223 219 221 220 225 231 230 229 234 235 224 230 233 225 224 212 224 230 237 251 268 279 292 303 314 326 336 340 344 342
282 275 268 253 240 236 229 227 220 218 217 217 216 220 221 222 216 219 213 219 222 224 224 230 235 230 227 231 224 220 213 220 230 237 254 262 277 283 299 308 320 326 337 337 345
290 280 272 263 245 232 226 223 218 218 219 219 217 215 218 219 218 218 217 217 219 220 222 226 227 228 225 228 222 220 220 224 232 237 248 260 273 281 293 298 309 319 338 334 339
294 284 274 262 246 235 226 223 220 218 219 219 216 216 215 215 218 218 216 216 219 222 226 224 225 229 226 229 226 218 220 227 229 236 245 261 267 280 292 297 309 315 333 331 336
Height
10786 10789 10792 10796 10799 10801 10805 10813 10817 10821 10824 10828 10833 10839 10844 10845 10846 10850 10855 10858 10862 10864 10865 10866 10865 10864 10866 10862 10861 10861 10861 10859 10858 10856 10853 10849 10846 10844 10842 10840 10830 10826 10816 10806 10801
10774 10778 10780 10783 10786 10791 10793 10796 10801 10808 10811 10815 10819 10826 10830 10834 10838 10842 10840 10847 10848 10851 10854 10855 10856 10856 10855 10853 10853 10853 10854 10850 10850 10847 10845 10841 10838 10833 10827 10824 10822 10817 10807 10798 10792
10762 10765 10768 10771 10774 10778 10781 10784 10787 10792 10795 10800 10805 10812 10815 10822 10828 10831 10834 10834 10835 10837 10841 10845 10845 10844 10845 10845 10843 10844 10848 10840 10839 10837 10835 10834 10830 10825 10819 10810 10805 10800 10795 10802 10785
10748 10751 10754 10758 10761 10765 10768 10770 10773 10779 10782 10786 10791 10796 10803 10809 10816 10821 10817 10818 10822 10825 10829 10833 10833 10832 10836 10836 10831 10834 10835 10831 10828 10827 10827 10825 10820 10814 10805 10799 10798 10792 10784 10780 10776
10733 10736 10738 10742 10747 10751 10754 10757 10760 10763 10767 10772 10778 10784 10791 10801 10808 10801 10805 10807 10810 10811 10815 10819 10821 10822 10827 10825 10822 10824 10823 10821 10818 10818 10817 10816 10806 10797 10795 10789 10788 10782 10780 10771 10761
10718 10721 10722 10725 10729 10734 10740 10743 10745 10749 10753 10757 10764 10771 10781 10796 10781 10785 10795 10800 10797 10798 10803 10806 10809 10811 10817 10816 10813 10811 10812 10809 10808 10809 10807 10804 10796 10783 10785 10782 10778 10772 10765 10760 10752
10708 10708 10708 10710 10713 10717 10722 10726 10730 10736 10738 10742 10751 10760 10773 10777 10764 10776 10781 10786 10784 10788 10789 10792 10796 10802 10802 10804 10801 10802 10801 10799 10798 10796 10795 10790 10783 10777 10773 10775 10767 10760 10757 10752 10741
10698 10697 10696 10697 10699 10702 10706 10710 10716 10719 10722 10729 10739 10749 10764 10751 10757 10763 10763 10771 10772 10775 10778 10781 10785 10791 10791 10790 10792 10790 10790 10793 10787 10784 10780 10781 10774 10764 10761 10760 10756 10750 10745 10739 10733
10683 10683 10684 10684 10685 10686 10689 10692 10698 10702 10706 10715 10725 10735 10748 10734 10745 10740 10756 10756 10759 10763 10766 10770 10774 10777 10778 10780 10780 10775 10784 10783 10776 10770 10771 10769 10765 10758 10748 10749 10745 10741 10734 10727 10724
10670 10668 10667 10667 10668 10670 10672 10674 10679 10683 10689 10700 10710 10722 10722 10717 10727 10733 10737 10740 10747 10751 10756 10756 10762 10767 10767 10767 10764 10771 10776 10768 10765 10762 10758 10757 10753 10751 10749 10739 10735 10730 10723 10719 10712
10654 10653 10652 10651 10650 10650 10653 10657 10660 10664 10676 10687 10692 10707 10705 10708 10710 10716 10722 10730 10734 10742 10744 10744 10754 10761 10753 10753 10759 10765 10760 10758 10757 10753 10750 10749 10747 10743 10737 10732 10726 10720 10713 10708 10704
10632 10632 10633 10631 10631 10632 10634 10639 10634 10649 10663 10667 10677 10691 10690 10695 10698 10701 10709 10719 10721 10731 10729 10738 10754 10737 10738 10748 10750 10747 10747 10747 10748 10746 10742 10741 10738 10735 10729 10725 10719 10712 10706 10700 10696
10603 10606 10608 10608 10612 10611 10611 10612 10612 10628 10643 10654 10665 10677 10671 10682 10688 10691 10700 10705 10712 10716 10720 10728 10726 10728 10735 10739 10738 10738 10736 10737 10740 10738 10737 10736 10732 10728 10724 10720 10713 10708 10700 10695 10690
10570 10572 10576 10580 10586 10584 10587 10591 10596 10607 10619 10647 10650 10669 10667 10663 10684 10672 10687 10692 10700 10704 10703 10717 10710 10719 10722 10726 10724 10726 10727 10728 10730 10728 10729 10729 10726 10722 10719 10713 10707 10701 10695 10687 10685
10527 10535 10541 10546 10551 10555 10564 10568 10574 10582 10590 10631 10633 10640 10643 10659 10662 10665 10662 10677 10685 10685 10691 10705 10700 10707 10712 10715 10715 10720 10718 10721 10720 10722 10722 10721 10722 10717 10713 10708 10702 10697 10691 10685 10681
10481 10489 10499 10506 10515 10519 10531 10538 10541 10549 10590 10621 10614 10623 10631 10642 10645 10639 10647 10661 10656 10674 10687 10688 10690 10697 10699 10700 10705 10708 10708 10710 10714 10714 10714 10714 10716 10710 10707 10702 10696 10691 10688 10680 10675
10432 10439 10454 10463 10470 10482 10497 10497 10506 10531 10597 10602 10593 10609 10616 10620 10620 10618 10632 10643 10652 10660 10675 10666 10673 10678 10682 10692 10697 10696 10699 10704 10707 10706 10707 10709 10708 10706 10702 10696 10690 10686 10682 10675 10669
10394 10400 10408 10418 10426 10440 10454 10458 10487 10553 10567 10576 10572 10578 10594 10592 10600 10599 10612 10621 10639 10651 10650 10660 10667 10674 10676 10680 10681 10688 10692 10696 10696 10699 10702 10702 10702 10701 10697 10692 10688 10682 10676 10670 10666
10364 10368 10370 10374 10386 10401 10416 10437 10488 10524 10532 10541 10530 10533 10565 10571 10580 10575 10594 10614 10623 10633 10641 10644 10655 10652 10661 10666 10672 10678 10683 10683 10690 10694 10697 10696 10697 10697 10694 10690 10685 10680 10674 10667 10663
10338 10340 10344 10352 10358 10371 10389 10423 10472 10492 10494 10488 10501 10509 10533 10547 10551 10563 10576 10610 10611 10619 10622 10633 10636 10643 10649 10654 10663 10671 10673 10680 10684 10688 10691 10690 10691 10691 10688 10685 10683 10677 10671 10664 10660
10319 10320 10323 10328 10336 10351 10375 10404 10426 10441 10443 10452 10467 10477 10505 10530 10535 10543 10564 10587 10592 10602 10607 10615 10623 10632 10635 10653 10660 10665 10669 10672 10676 10682 10684 10685 10685 10685 10683 10682 10678 10673 10667 10662 10659
10303 10304 10306 10311 10320 10333 10341 10355 10374 10400 10409 10413 10428 10459 10489 10501 10516 10533 10553 10568 10586 10586 10592 10605 10618 10619 10637 10645 10648 10651 10658 10665 10672 10675 10678 10680 10680 10680 10678 10678 10675 10670 10667 10661 10658
10288 10290 10294 10297 10303 10311 10316 10334 10350 10365 10375 10387 10410 10446 10455 10474 10508 10525 10550 10565 10568 10567 10590 10592 10598 10613 10622 10629 10636 10646 10653 10661 10664 10668 10673 10672 10673 10677 10675 10675 10672 10669 10665 10661 10657
10275 10276 10278 10283 10287 10292 10299 10310 10324 10334 10346 10356 10390 10413 10437 10461 10498 10514 10535 10542 10551 10562 10577 10570 10584 10604 10616 10626 10633 10639 10648 10650 10653 10661 10666 10667 10667 10671 10672 10670 10668 10666 10663 10660 10656
10263 10263 10264 10269 10273 10276 10285 10292 10305 10314 10318 10330 10361 10386 10414 10443 10476 10488 10492 10498 10516 10535 10554 10554 10571 10597 10605 10609 10622 10630 10635 10640 10649 10656 10661 10659 10663 10666 10668 10668 10667 10664 10663 10659 10656
10252 10251 10252 10254 10259 10262 10265 10271 10283 10291 10295 10318 10342 10365 10394 10427 10442 10455 10478 10489 10509 10519 10526 10536 10562 10580 10591 10599 10610 10622 10630 10635 10642 10650 10653 10653 10659 10658 10662 10665 10667 10662 10659 10658 10654
10241 10240 10241 10241 10243 10246 10250 10257 10266 10273 10281 10299 10331 10349 10378 10405 10415 10431 10450 10481 10496 10506 10512 10533 10561 10569 10585 10591 10598 10611 10621 10630 10635 10640 10646 10648 10649 10655 10657 10657 10657 10660 10658 10655 10652